Flag for Seychelles Weather past 2 weeks in Victoria, Seychelles

Now
82 °F

Passing clouds.


Feels Like: 89 °F
Forecast: 74 / 83 °F
Wind: No wind

Location: National Airport

Current Time: Oct 26, 2014 at 8:23:28 AM

Latest Report: Oct 26, 2014 at 8:00 AM


Visibility: N/A

Pressure: 29.89 "Hg

Humidity: 79%

Dew point: 75 °F

Location of VictoriaLocation

Historic Weather in Victoria — Graph

°F

Victoria temperature yesterday

Maximum temperature yesterday: 90 °F (at 1:00 PM)
Minimum temperature yesterday: 79 °F (at 5:00 AM)
Average temperature yesterday: 83 °F

Past Weeks' High & Low Weather Summary

 TemperatureHumidityPressure
High90 °F (Oct 25, 1:00 PM)100% (Oct 17, 6:00 AM)29.95 "Hg (Oct 17, 6:00 AM)
Low36 °F (Oct 17, 6:00 AM)52% (Oct 25, 2:00 PM)29.77 "Hg (Oct 20, 3:00 PM)
Average82 °F77%29.87 "Hg
* Reported Oct 11 7:00 AM — Oct 26 7:00 AM, Victoria, Weather by CustomWeather, © 2014

Note: Actual official high and low records may vary slightly from our data, if they occured in-between our weather recording intervals... More about our weather records

Advertising

Victoria weather history for previous 24 hours

 ConditionsComfort  
Time TempWeatherWind HumidityBarometerVisibility
7:00 AM
Oct 26
81 °FPassing clouds.No wind79%29.89 "HgN/A
6:00 AM77 °FPassing clouds.No wind89%29.86 "HgN/A
5:00 AM79 °FPassing clouds.No wind84%29.83 "HgN/A
4:00 AM79 °FPassing clouds.2 mph84%29.83 "HgN/A
3:00 AM79 °FPassing clouds.2 mph84%29.83 "HgN/A
2:00 AM79 °FPassing clouds.2 mph84%29.83 "HgN/A
1:00 AM79 °FPassing clouds.2 mph84%29.83 "HgN/A
12:00 AM81 °FPassing clouds.5 mph79%29.86 "HgN/A
11:00 PM
Oct 25
81 °FPassing clouds.7 mph79%29.86 "HgN/A
10:00 PM81 °FPassing clouds.7 mph79%29.89 "HgN/A
9:00 PM81 °FPassing clouds.2 mph74%29.89 "HgN/A
8:00 PM81 °FPassing clouds.7 mph79%29.86 "HgN/A
7:00 PM82 °FPassing clouds.8 mph70%29.86 "HgN/A
6:00 PM82 °FScattered clouds.3 mph70%29.83 "HgN/A
5:00 PM84 °FPassing clouds.8 mph66%29.80 "HgN/A
4:00 PM86 °FPassing clouds.6 mph62%29.80 "HgN/A
3:00 PM88 °FPassing clouds.14 mph55%29.80 "HgN/A
2:00 PM90 °FPassing clouds.8 mph52%29.80 "HgN/A
1:00 PM90 °FPassing clouds.13 mph55%29.83 "HgN/A
12:00 PM86 °FPassing clouds.14 mph66%29.86 "HgN/A
11:00 AM86 °FPassing clouds.14 mph66%29.89 "HgN/A
10:00 AM86 °FScattered clouds.13 mph66%29.89 "HgN/A
9:00 AM84 °FScattered clouds.12 mph70%29.92 "HgN/A
8:00 AM84 °FPassing clouds.8 mph70%29.89 "HgN/A
Weather by CustomWeather, © 2014

See weather overviewHow to use our weather pages